{"data":{"norad_id":61528,"epoch":"2026-05-25T05:04:32.956320Z","epoch_age_seconds":46942,"freshness":"FRESH","line1":"1 61528U 24183V   26145.21149255  .00000661  00000+0  34454-4 0  9993","line2":"2 61528  53.1595 147.3276 0001164  78.2018 281.9113 15.30195368 91365","mean_motion":15.30195368,"eccentricity":0.0001164,"inclination_deg":53.1595,"raan_deg":147.3276,"arg_perigee_deg":78.2018,"mean_anomaly_deg":281.9113,"bstar":3.4454e-5,"rev_number":9136,"period_min":94.10563056939,"perigee_km":474.43116798056,"apogee_km":476.02663156202,"semimajor_km":6853.3658997713,"source":"CELESTRAK","updated_at":"2026-05-25T13:38:19.396127Z"}}